Regional Weather Roundup
Issued by NWS

Home | Current Version | Previous Version | Graphics & Text | Print | Product List | Glossary On
Versions: 1 2 3 4 5 6 7 8 9 10 11 12 13 14 15 16 17 18 19 20 21 22 23 24 25 26 27 28 29 30 31 32 33 34 35 36 37 38 39 40 41 42 43 44 45 46 47 48 49 50
000
ASUS43 KIND 220259
RWRIN

WEATHER ROUNDUP FOR INDIANA
NATIONAL WEATHER SERVICE INDIANAPOLIS IN
1100 PM EDT WED JUN 21 2017

NOTE: "FAIR" INDICATES FEW OR NO CLOUDS BELOW 12,000 FEET WITH NO
SIGNIFICANT WEATHER AND/OR OBSTRUCTIONS TO VISIBILITY.

* - STATION DOES NOT REPORT WEATHER SUCH AS PRECIPITATION OR FOG.

+ - STATION NOT QUALITY CONTROLLED BY THE NATIONAL WEATHER SERVICE.
    USE DATA WITH CAUTION...ESPECIALLY DEWPOINT AND RELATIVE
    HUMIDITY OBSERVATIONS.

INZ001>003-010>013-019-020-220400-
NORTHWEST INDIANA

CITY           SKY/WX    TMP DP  RH WIND       PRES   REMARKS
GARY /AIRPORT/ PTCLDY    66  63  88 CALM      29.92R
KNOX *+        CLOUDY    68  55  64 CALM      29.93R
MICHIGAN CITY+ MOCLDY    68  57  68 CALM      29.93S
MONTICELLO +   CLOUDY    74  69  82 CALM      29.93R
RENSSELAER +   CLEAR     73  64  73 CALM      29.93R

$$

LMZ046-743>745-220400-
SOUTHERN LAKE MICHIGAN

STATION/POSITION TIME  TEMP    WIND        PRES    WAVE
                       AIR SEA DIR/SP/G            HT
                 (UTC) (F)     (DEG/KT/KT) (MB)    (FT)
BURNS HARBOR     0240   68      80/  5/  8 1013.5R
MICHIGAN CITY    0230   74     110/  3/  4   N/A
5NW MICH CITY    0250   69 68   90/  6/  6   N/A     1

$$

INZ004-005-014>016-021>024-220400-
NORTH CENTRAL INDIANA

CITY           SKY/WX    TMP DP  RH WIND       PRES   REMARKS
GOSHEN         PTCLDY    68  59  73 E3        29.95R
SOUTH BEND     CLEAR     71  56  58 E5        29.94S

$$

INZ006>009-017-018-025>027-220400-
NORTHEAST INDIANA

CITY           SKY/WX    TMP DP  RH WIND       PRES   REMARKS
FORT WAYNE     CLOUDY    71  61  70 E3        29.96R
KENDALLVILLE + MOCLDY    70  60  72 CALM      29.97R

$$

INZ028-029-035-036-043>045-051>053-220400-
WEST CENTRAL INDIANA

CITY           SKY/WX    TMP DP  RH WIND       PRES   REMARKS
CRAWFORDSVL +  CLOUDY   N/A N/A N/A S5        29.95R
GREENCASTLE +  MOCLDY    77  68  73 CALM      29.97R
LAFAYETTE      CLOUDY    73  69  87 CALM      29.92R
TERRE HAUTE    PTCLDY    79  67  66 S10       29.94R

$$

INZ030>032-037>040-046>048-054>057-064-065-220400-
CENTRAL INDIANA

CITY           SKY/WX    TMP DP  RH WIND       PRES   REMARKS
INDIANAPOLIS   MOCLDY    78  70  76 SW8       29.95R
-EAGLE CREEK   CLOUDY    80  67  64 SW6       29.95R
KOKOMO +       PTCLDY    75  70  84 E3        29.96R
MT COMFORT *+  CLOUDY    79  68  69 SW9       29.97R
SHELBYVILLE    PTCLDY    78  68  71 S9        29.96R

$$

INZ033-034-041-042-049-050-058-059-220400-
EAST CENTRAL INDIANA

CITY           SKY/WX    TMP DP  RH WIND       PRES   REMARKS
MUNCIE         CLOUDY    78  67  68 S3        29.96R
RICHMOND +     MOCLDY    73  66  78 SW12      29.99R

$$

INZ060-061-067>069-081>083-085>088-220400-
SOUTHWEST INDIANA

CITY           SKY/WX    TMP DP  RH WIND       PRES   REMARKS
EVANSVILLE     CLOUDY    78  68  71 S5        29.98R
HUNTINGBURG *+ PTCLDY    77  68  73 S5        29.99R

$$

INZ062-063-066-070>080-084-089>092-220400-
SOUTH CENTRAL AND SOUTHEAST INDIANA

CITY           SKY/WX    TMP DP  RH WIND       PRES   REMARKS
BLOOMINGTON    PTCLDY    77  68  73 S6        29.97R
MADISON *+     PTCLDY    77  66  69 S6        30.02R
SEYMOUR +      CLEAR     77  68  73 S6        29.98R

$$





USA.gov is the U.S. government's official web portal to all federal, state and local government web resources and services.